When you browse on this site, cookies collect data to enhance your experience and personalize the content and advertising you see.
Visit our Privacy Policy to learn more. By continuing to use the site, you agree to this use of cookies and data.
  • In France
  • List of Countries
  • For 7 days
  • Water Temperature
  • Satellite Maps
  • Weather Map
  • Weather Widgets
  • user-avatar
    Login

    Hourly Weather Sydney

    Today, 23 May, Thursday

    Time Temperature Precipitation Wind Pressure Humidity
    00:00 +18°C° 0.5 mm 2 mps 769 mmHg 88%
    01:00 +18°C° 0.5 mm 2 mps 769 mmHg 90%
    02:00 +17°C° 0.2 mm 2 mps 769 mmHg 91%
    03:00 +17°C° 0.2 mm 2 mps 769 mmHg 92%
    04:00 +17°C° 0 mm 2 mps 769 mmHg 92%
    05:00 +17°C° 0.3 mm 2 mps 769 mmHg 93%
    06:00 +17°C° 0.3 mm 2 mps 769 mmHg 94%
    07:00 +16°C° 0.3 mm 2 mps 769 mmHg 94%
    08:00 +18°C° 0.1 mm 2 mps 769 mmHg 88%
    09:00 +19°C° 0.1 mm 2 mps 769 mmHg 83%
    10:00 +23°C° 0 mm 2 mps 769 mmHg 70%
    11:00 +24°C° 0.1 mm 2 mps 769 mmHg 64%
    12:00 +25°C° 0.1 mm 2 mps 768 mmHg 58%
    13:00 +26°C° 0.1 mm 2 mps 768 mmHg 52%
    14:00 +25°C° 0 mm 2 mps 768 mmHg 55%
    15:00 +24°C° 0 mm 2 mps 767 mmHg 58%
    16:00 +24°C° 0 mm 3 mps 767 mmHg 61%
    17:00 +23°C° 0 mm 2 mps 767 mmHg 67%
    18:00 +20°C° 0 mm 2 mps 767 mmHg 74%
    19:00 +20°C° 0 mm 1 mps 768 mmHg 80%
    20:00 +20°C° 0.1 mm 1 mps 768 mmHg 82%
    21:00 +19°C° 0.1 mm 1 mps 768 mmHg 84%
    22:00 +19°C° 0.1 mm 1 mps 768 mmHg 86%
    23:00 +19°C° 0.2 mm 1 mps 767 mmHg 88%

    Tomorrow, 24 May, Friday

    Time Temperature Precipitation Wind Pressure Humidity
    00:00 +17°C° 0.2 mm 2 mps 767 mmHg 89%
    01:00 +17°C° 0.2 mm 2 mps 767 mmHg 91%
    02:00 +16°C° 0 mm 2 mps 767 mmHg 90%
    03:00 +16°C° 0 mm 2 mps 767 mmHg 90%
    04:00 +15°C° 0 mm 2 mps 766 mmHg 90%
    05:00 +15°C° 0 mm 2 mps 766 mmHg 87%
    06:00 +15°C° 0 mm 2 mps 766 mmHg 84%
    07:00 +14°C° 0 mm 2 mps 766 mmHg 81%
    08:00 +16°C° 0 mm 2 mps 766 mmHg 70%
    09:00 +18°C° 0 mm 2 mps 766 mmHg 60%
    10:00 +20°C° 0 mm 2 mps 766 mmHg 50%
    11:00 +21°C° 0 mm 2 mps 766 mmHg 44%
    12:00 +24°C° 0 mm 1 mps 765 mmHg 38%
    13:00 +26°C° 0 mm 1 mps 764 mmHg 32%
    14:00 +25°C° 0 mm 1 mps 764 mmHg 34%
    15:00 +25°C° 0 mm 2 mps 764 mmHg 36%
    16:00 +24°C° 0 mm 2 mps 764 mmHg 38%
    17:00 +23°C° 0 mm 2 mps 764 mmHg 45%
    18:00 +21°C° 0 mm 3 mps 764 mmHg 52%
    19:00 +20°C° 0 mm 3 mps 764 mmHg 59%
    20:00 +19°C° 0 mm 3 mps 764 mmHg 58%
    21:00 +18°C° 0 mm 2 mps 765 mmHg 57%
    22:00 +18°C° 0 mm 2 mps 765 mmHg 56%
    23:00 +17°C° 0 mm 2 mps 765 mmHg 54%

    Day after tomorrow, 25 May, Saturday

    Time Temperature Precipitation Wind Pressure Humidity
    00:00 +17°C° 0 mm 2 mps 764 mmHg 51%
    01:00 +17°C° 0 mm 2 mps 764 mmHg 48%
    02:00 +16°C° 0 mm 2 mps 764 mmHg 50%
    03:00 +16°C° 0 mm 2 mps 764 mmHg 51%
    04:00 +16°C° 0 mm 2 mps 763 mmHg 53%
    05:00 +16°C° 0 mm 2 mps 763 mmHg 55%
    06:00 +16°C° 0 mm 2 mps 764 mmHg 57%
    07:00 +15°C° 0 mm 2 mps 764 mmHg 59%
    08:00 +18°C° 0 mm 2 mps 764 mmHg 54%
    09:00 +20°C° 0 mm 2 mps 764 mmHg 48%
    10:00 +23°C° 0 mm 2 mps 763 mmHg 43%
    11:00 +24°C° 0 mm 2 mps 763 mmHg 39%
    12:00 +26°C° 0 mm 2 mps 762 mmHg 36%
    13:00 +28°C° 0 mm 2 mps 761 mmHg 32%
    14:00 +27°C° 0 mm 2 mps 761 mmHg 35%
    15:00 +26°C° 0 mm 3 mps 761 mmHg 37%
    16:00 +26°C° 0 mm 3 mps 760 mmHg 39%
    17:00 +25°C° 0 mm 3 mps 761 mmHg 41%
    18:00 +24°C° 0 mm 3 mps 761 mmHg 44%
    19:00 +22°C° 0 mm 4 mps 761 mmHg 46%
    20:00 +21°C° 0 mm 4 mps 761 mmHg 45%
    21:00 +20°C° 0 mm 4 mps 761 mmHg 45%
    22:00 +19°C° 0 mm 4 mps 761 mmHg 44%
    23:00 +19°C° 0 mm 4 mps 761 mmHg 44%

    26 May, Sunday

    Time Temperature Precipitation Wind Pressure Humidity
    00:00 +18°C° 0 mm 4 mps 760 mmHg 44%
    01:00 +18°C° 0 mm 4 mps 760 mmHg 45%
    02:00 +18°C° 0 mm 4 mps 760 mmHg 44%
    03:00 +17°C° 0 mm 5 mps 760 mmHg 44%
    04:00 +17°C° 0 mm 5 mps 759 mmHg 44%
    05:00 +16°C° 0 mm 5 mps 760 mmHg 46%
    06:00 +17°C° 0 mm 4 mps 760 mmHg 47%
    07:00 +17°C° 0 mm 4 mps 760 mmHg 49%
    08:00 +18°C° 0 mm 4 mps 760 mmHg 47%
    09:00 +20°C° 0 mm 4 mps 760 mmHg 45%
    10:00 +21°C° 0 mm 5 mps 760 mmHg 43%
    11:00 +22°C° 0 mm 4 mps 760 mmHg 40%
    12:00 +23°C° 0 mm 4 mps 759 mmHg 37%
    13:00 +25°C° 0 mm 4 mps 759 mmHg 34%
    14:00 +25°C° 0 mm 4 mps 759 mmHg 34%
    15:00 +23°C° 0 mm 4 mps 759 mmHg 34%
    16:00 +23°C° 0 mm 4 mps 758 mmHg 33%
    17:00 +21°C° 0 mm 4 mps 759 mmHg 36%
    18:00 +20°C° 0 mm 4 mps 759 mmHg 40%
    19:00 +18°C° 0 mm 4 mps 759 mmHg 43%
    20:00 +18°C° 0 mm 4 mps 759 mmHg 45%
    21:00 +16°C° 0 mm 5 mps 759 mmHg 48%
    22:00 +15°C° 0 mm 5 mps 760 mmHg 50%
    23:00 +15°C° 0 mm 4 mps 759 mmHg 50%

    27 May, Monday

    Time Temperature Precipitation Wind Pressure Humidity
    00:00 +14°C° 0 mm 4 mps 759 mmHg 50%
    01:00 +14°C° 0 mm 4 mps 759 mmHg 50%
    02:00 +13°C° 0 mm 4 mps 758 mmHg 50%
    03:00 +13°C° 0 mm 4 mps 758 mmHg 50%
    04:00 +13°C° 0 mm 4 mps 758 mmHg 50%
    05:00 +12°C° 0 mm 4 mps 758 mmHg 50%
    06:00 +12°C° 0 mm 4 mps 758 mmHg 51%
    07:00 +12°C° 0 mm 4 mps 758 mmHg 52%
    08:00 +14°C° 0 mm 4 mps 758 mmHg 48%
    09:00 +15°C° 0 mm 4 mps 758 mmHg 45%
    10:00 +18°C° 0 mm 4 mps 758 mmHg 42%
    11:00 +17°C° 0 mm 5 mps 757 mmHg 40%
    12:00 +17°C° 0 mm 6 mps 757 mmHg 39%
    13:00 +18°C° 0 mm 7 mps 757 mmHg 38%
    14:00 +17°C° 0 mm 7 mps 757 mmHg 38%
    15:00 +16°C° 0 mm 8 mps 757 mmHg 37%
    16:00 +16°C° 0 mm 8 mps 757 mmHg 37%
    17:00 +13°C° 0 mm 8 mps 758 mmHg 39%
    18:00 +12°C° 0 mm 8 mps 759 mmHg 41%
    19:00 +11°C° 0 mm 8 mps 760 mmHg 42%
    20:00 +11°C° 0 mm 7 mps 761 mmHg 44%
    21:00 +10°C° 0 mm 7 mps 761 mmHg 45%
    22:00 +10°C° 0 mm 7 mps 761 mmHg 46%
    23:00 +9°C° 0 mm 7 mps 761 mmHg 47%

    28 May, Tuesday

    Time Temperature Precipitation Wind Pressure Humidity
    00:00 +9°C° 0 mm 6 mps 761 mmHg 48%
    01:00 +9°C° 0 mm 6 mps 761 mmHg 49%
    02:00 +8°C° 0 mm 6 mps 761 mmHg 51%
    03:00 +8°C° 0 mm 5 mps 761 mmHg 52%
    04:00 +7°C° 0 mm 5 mps 761 mmHg 54%
    05:00 +7°C° 0 mm 5 mps 761 mmHg 55%
    06:00 +7°C° 0 mm 5 mps 762 mmHg 57%
    07:00 +6°C° 0 mm 5 mps 762 mmHg 58%
    08:00 +8°C° 0 mm 5 mps 762 mmHg 53%
    09:00 +10°C° 0 mm 5 mps 762 mmHg 48%
    10:00 +12°C° 0 mm 5 mps 762 mmHg 43%
    11:00 +14°C° 0 mm 5 mps 761 mmHg 40%
    12:00 +15°C° 0 mm 5 mps 760 mmHg 36%
    13:00 +17°C° 0 mm 5 mps 760 mmHg 33%
    14:00 +17°C° 0 mm 5 mps 759 mmHg 34%
    15:00 +17°C° 0 mm 5 mps 759 mmHg 36%
    16:00 +17°C° 0 mm 5 mps 759 mmHg 37%
    17:00 +16°C° 0 mm 5 mps 759 mmHg 40%
    18:00 +15°C° 0 mm 6 mps 759 mmHg 43%
    19:00 +14°C° 0 mm 6 mps 760 mmHg 46%
    20:00 +14°C° 0 mm 6 mps 760 mmHg 48%
    21:00 +12°C° 0 mm 7 mps 759 mmHg 50%
    22:00 +12°C° 0 mm 7 mps 759 mmHg 52%
    23:00 +12°C° 0 mm 7 mps 759 mmHg 53%
    Show more